• In Hungary
  • List of Countries
  • For 7 days
  • Water Temperature
  • Satellite Maps
  • Weather Map
  • News
  • Weather Widgets
  • user-avatar
    Login

    Hourly Weather Kalmuki

    Today, 21 September, Friday

    Time Temperature Precipitation Wind Pressure Humidity
    00:00 +19°C° 0 mm 2 mps 739 mmHg 64%
    01:00 +18°C° 0 mm 3 mps 739 mmHg 66%
    02:00 +18°C° 0 mm 3 mps 739 mmHg 67%
    03:00 +18°C° 0 mm 3 mps 739 mmHg 69%
    04:00 +17°C° 0 mm 3 mps 739 mmHg 70%
    05:00 +18°C° 0 mm 3 mps 738 mmHg 68%
    06:00 +18°C° 0 mm 3 mps 738 mmHg 66%
    07:00 +18°C° 0 mm 3 mps 738 mmHg 63%
    08:00 +20°C° 0 mm 4 mps 738 mmHg 57%
    09:00 +23°C° 0 mm 4 mps 738 mmHg 50%
    10:00 +26°C° 0 mm 5 mps 737 mmHg 44%
    11:00 +26°C° 0 mm 5 mps 737 mmHg 41%
    12:00 +27°C° 0 mm 6 mps 736 mmHg 39%
    13:00 +28°C° 0 mm 6 mps 736 mmHg 36%
    14:00 +28°C° 0 mm 6 mps 735 mmHg 38%
    15:00 +27°C° 0 mm 5 mps 735 mmHg 40%
    16:00 +27°C° 0 mm 5 mps 735 mmHg 42%
    17:00 +26°C° 0 mm 5 mps 734 mmHg 45%
    18:00 +23°C° 0 mm 5 mps 734 mmHg 48%
    19:00 +22°C° 0 mm 5 mps 734 mmHg 52%
    20:00 +22°C° 0.1 mm 5 mps 734 mmHg 52%
    21:00 +21°C° 0.1 mm 5 mps 734 mmHg 53%
    22:00 +21°C° 0.1 mm 5 mps 735 mmHg 54%
    23:00 +19°C° 0.5 mm 6 mps 735 mmHg 62%

    Tomorrow, 22 September, Saturday

    Time Temperature Precipitation Wind Pressure Humidity
    00:00 +17°C° 0.5 mm 6 mps 736 mmHg 71%
    01:00 +15°C° 0.5 mm 7 mps 736 mmHg 79%
    02:00 +14°C° 0.8 mm 6 mps 737 mmHg 80%
    03:00 +13°C° 0.8 mm 5 mps 738 mmHg 80%
    04:00 +12°C° 0.8 mm 4 mps 739 mmHg 80%
    05:00 +12°C° 0 mm 3 mps 739 mmHg 79%
    06:00 +12°C° 0 mm 3 mps 739 mmHg 77%
    07:00 +12°C° 0 mm 3 mps 740 mmHg 76%
    08:00 +13°C° 0 mm 4 mps 740 mmHg 69%
    09:00 +14°C° 0 mm 5 mps 740 mmHg 62%
    10:00 +14°C° 0 mm 5 mps 740 mmHg 56%
    11:00 +15°C° 0 mm 5 mps 740 mmHg 52%
    12:00 +16°C° 0 mm 6 mps 740 mmHg 47%
    13:00 +17°C° 0 mm 6 mps 740 mmHg 43%
    14:00 +17°C° 0 mm 6 mps 739 mmHg 44%
    15:00 +16°C° 0 mm 5 mps 739 mmHg 45%
    16:00 +16°C° 0 mm 5 mps 739 mmHg 46%
    17:00 +15°C° 0.1 mm 4 mps 739 mmHg 50%
    18:00 +14°C° 0.1 mm 4 mps 740 mmHg 54%
    19:00 +13°C° 0.1 mm 3 mps 740 mmHg 59%
    20:00 +12°C° 0.1 mm 3 mps 740 mmHg 61%
    21:00 +12°C° 0.1 mm 3 mps 741 mmHg 63%
    22:00 +11°C° 0.1 mm 3 mps 741 mmHg 64%
    23:00 +11°C° 0 mm 3 mps 741 mmHg 65%

    Day after tomorrow, 23 September, Sunday

    Time Temperature Precipitation Wind Pressure Humidity
    00:00 +10°C° 0 mm 3 mps 741 mmHg 66%
    01:00 +10°C° 0 mm 3 mps 741 mmHg 67%
    02:00 +10°C° 0 mm 3 mps 741 mmHg 68%
    03:00 +9°C° 0 mm 3 mps 741 mmHg 69%
    04:00 +9°C° 0 mm 3 mps 741 mmHg 70%
    05:00 +9°C° 0 mm 3 mps 741 mmHg 69%
    06:00 +10°C° 0 mm 4 mps 741 mmHg 69%
    07:00 +10°C° 0 mm 4 mps 742 mmHg 69%
    08:00 +11°C° 0 mm 4 mps 742 mmHg 62%
    09:00 +13°C° 0 mm 4 mps 742 mmHg 56%
    10:00 +15°C° 0 mm 5 mps 742 mmHg 49%
    11:00 +15°C° 0 mm 5 mps 741 mmHg 47%
    12:00 +16°C° 0 mm 5 mps 741 mmHg 46%
    13:00 +17°C° 0 mm 5 mps 741 mmHg 44%
    14:00 +17°C° 0 mm 4 mps 740 mmHg 48%
    15:00 +17°C° 0 mm 4 mps 739 mmHg 51%
    16:00 +15°C° 0 mm 4 mps 739 mmHg 55%
    17:00 +15°C° 0.1 mm 4 mps 738 mmHg 58%
    18:00 +14°C° 0.1 mm 4 mps 738 mmHg 62%
    19:00 +13°C° 0.1 mm 4 mps 737 mmHg 65%
    20:00 +13°C° 0.1 mm 5 mps 736 mmHg 68%
    21:00 +13°C° 0.1 mm 5 mps 735 mmHg 70%
    22:00 +13°C° 0.1 mm 6 mps 734 mmHg 72%
    23:00 +14°C° 1.4 mm 7 mps 733 mmHg 74%

    24 September, Monday

    Time Temperature Precipitation Wind Pressure Humidity
    00:00 +14°C° 1.4 mm 7 mps 731 mmHg 77%
    01:00 +14°C° 1.4 mm 7 mps 730 mmHg 79%
    02:00 +15°C° 0.6 mm 8 mps 728 mmHg 76%
    03:00 +15°C° 0.6 mm 9 mps 727 mmHg 73%
    04:00 +16°C° 0.6 mm 10 mps 725 mmHg 71%
    05:00 +16°C° 2.2 mm 10 mps 725 mmHg 74%
    06:00 +16°C° 2.2 mm 10 mps 724 mmHg 78%
    07:00 +16°C° 2.2 mm 10 mps 723 mmHg 81%
    08:00 +14°C° 0.6 mm 11 mps 723 mmHg 78%
    09:00 +14°C° 0.6 mm 12 mps 723 mmHg 74%
    10:00 +13°C° 0.6 mm 13 mps 722 mmHg 71%
    11:00 +12°C° 0.6 mm 14 mps 724 mmHg 73%
    12:00 +9°C° 0.6 mm 16 mps 726 mmHg 74%
    13:00 +7°C° 0.6 mm 17 mps 728 mmHg 76%
    14:00 +7°C° 0.3 mm 16 mps 730 mmHg 74%
    15:00 +8°C° 0.3 mm 15 mps 732 mmHg 72%
    16:00 +8°C° 0.3 mm 13 mps 735 mmHg 69%
    17:00 +8°C° 0.1 mm 12 mps 736 mmHg 70%
    18:00 +7°C° 0.1 mm 11 mps 737 mmHg 70%
    19:00 +7°C° 0.1 mm 10 mps 739 mmHg 71%
    20:00 +6°C° 0 mm 9 mps 740 mmHg 68%
    21:00 +6°C° 0 mm 8 mps 740 mmHg 66%
    22:00 +5°C° 0 mm 7 mps 741 mmHg 63%
    23:00 +5°C° 0 mm 7 mps 742 mmHg 64%

    25 September, Tuesday

    Time Temperature Precipitation Wind Pressure Humidity
    00:00 +5°C° 0 mm 7 mps 743 mmHg 65%
    01:00 +5°C° 0 mm 7 mps 744 mmHg 66%
    02:00 +5°C° 0 mm 7 mps 744 mmHg 65%
    03:00 +4°C° 0 mm 7 mps 745 mmHg 65%
    04:00 +4°C° 0 mm 7 mps 746 mmHg 64%
    05:00 +4°C° 0 mm 7 mps 746 mmHg 64%
    06:00 +4°C° 0 mm 7 mps 747 mmHg 64%
    07:00 +5°C° 0 mm 7 mps 747 mmHg 64%
    08:00 +6°C° 0 mm 8 mps 748 mmHg 58%
    09:00 +7°C° 0 mm 8 mps 748 mmHg 52%
    10:00 +10°C° 0 mm 8 mps 749 mmHg 46%
    11:00 +10°C° 0 mm 8 mps 748 mmHg 46%
    12:00 +10°C° 0 mm 8 mps 748 mmHg 46%
    13:00 +11°C° 0 mm 8 mps 748 mmHg 46%
    14:00 +11°C° 0 mm 8 mps 747 mmHg 46%
    15:00 +11°C° 0 mm 8 mps 747 mmHg 47%
    16:00 +11°C° 0 mm 7 mps 747 mmHg 47%
    17:00 +10°C° 0 mm 7 mps 746 mmHg 51%
    18:00 +9°C° 0 mm 7 mps 746 mmHg 55%
    19:00 +9°C° 0 mm 7 mps 746 mmHg 58%
    20:00 +9°C° 0.1 mm 7 mps 745 mmHg 62%
    21:00 +7°C° 0.1 mm 8 mps 745 mmHg 66%
    22:00 +7°C° 0.1 mm 9 mps 744 mmHg 70%
    23:00 +7°C° 1.7 mm 8 mps 744 mmHg 75%

    26 September, Wednesday

    Time Temperature Precipitation Wind Pressure Humidity
    00:00 +8°C° 1.7 mm 7 mps 744 mmHg 81%
    01:00 +6°C° 1.7 mm 7 mps 744 mmHg 86%
    02:00 +7°C° 0.1 mm 6 mps 744 mmHg 85%
    03:00 +5°C° 0.1 mm 6 mps 745 mmHg 85%
    04:00 +6°C° 0.1 mm 5 mps 745 mmHg 84%
    05:00 +6°C° 0 mm 5 mps 745 mmHg 82%
    06:00 +5°C° 0 mm 6 mps 746 mmHg 81%
    07:00 +5°C° 0 mm 6 mps 746 mmHg 79%
    08:00 +8°C° 0 mm 6 mps 747 mmHg 71%
    09:00 +9°C° 0 mm 6 mps 748 mmHg 64%
    10:00 +11°C° 0 mm 6 mps 748 mmHg 56%
    11:00 +12°C° 0 mm 5 mps 748 mmHg 53%
    12:00 +13°C° 0 mm 5 mps 748 mmHg 49%
    13:00 +14°C° 0 mm 5 mps 748 mmHg 46%
    14:00 +14°C° 0 mm 4 mps 748 mmHg 46%
    15:00 +13°C° 0 mm 4 mps 748 mmHg 46%
    16:00 +13°C° 0 mm 4 mps 748 mmHg 47%
    17:00 +12°C° 0 mm 3 mps 748 mmHg 53%
    18:00 +11°C° 0 mm 3 mps 749 mmHg 59%
    19:00 +10°C° 0 mm 2 mps 749 mmHg 66%
    20:00 +9°C° 0 mm 2 mps 749 mmHg 73%
    21:00 +9°C° 0 mm 2 mps 749 mmHg 79%
    22:00 +9°C° 0 mm 2 mps 749 mmHg 86%
    23:00 +8°C° 0 mm 2 mps 749 mmHg 89%
    Show more